Home > Weather > Slough > Past weeks

Flag for United Kingdom Past Weather in Slough, England, United Kingdom — Yesterday and Last 2 Weeks

Now
70 °F

Sunny.


Feels Like: 70 °F
Forecast: 60 / 71 °F
Wind: 12 mph from East

Location: London City Airport

Current Time: Aug 27, 2016 at 9:24:33 AM

Latest Report: Aug 27, 2016 at 8:50 AM


Visibility: 10 mi

Pressure: 30.07 "Hg

Humidity: 69%

Dew Point: 59 °F

Location of SloughLocation

Past Weather in Slough — Graph

°F

Slough Temperature Yesterday

Maximum temperature yesterday: 81 °F (at 3:50 PM)
Minimum temperature yesterday: 66 °F (at 6:50 AM)
Average temperature yesterday: 74 °F

High & Low Weather Summary for the Past Weeks

 TemperatureHumidityPressure
High91 °F (Aug 24, 4:50 PM)88% (Aug 15, 5:20 AM)30.30 "Hg (Aug 15, 5:20 AM)
Low55 °F (Aug 16, 4:50 AM)24% (Aug 26, 4:20 PM)29.68 "Hg (Aug 19, 2:20 PM)
Average69 °F65%30.04 "Hg
* Reported Aug 12 7:20 AM — Aug 27 7:50 AM, Slough, Weather by CustomWeather, © 2016

Note: Actual official high and low records may vary slightly from our data, if they occured in-between our weather recording intervals... More about our weather records

Advertising

Slough Weather History for the Previous 24 Hours

Scroll right to see more
 ConditionsComfort  
Time TempWeatherWind HumidityBarometerVisibility
7:50 AM
Sat, Aug 27
66 °FSunny.8 mph78%30.07 "Hg10 mi
7:20 AM64 °FSunny.9 mph88%30.07 "Hg10 mi
6:50 AM64 °FClear.3 mph88%30.07 "Hg6 mi
6:20 AM64 °FClear.6 mph83%30.07 "Hg6 mi
5:50 AM63 °FMild.5 mph83%30.07 "Hg4 mi
5:20 AM63 °FPassing clouds.5 mph83%30.07 "HgN/A
4:50 AM63 °FPassing clouds.3 mph77%30.09 "HgN/A
4:20 AM63 °FMild.3 mph77%30.09 "HgN/A
3:50 AM63 °FMild.3 mph77%30.09 "HgN/A
3:20 AM63 °FMild.3 mph73%30.09 "HgN/A
2:50 AM64 °FMild.3 mph68%30.09 "HgN/A
2:20 AM66 °FMild.5 mph60%30.09 "HgN/A
1:50 AM66 °FMild.3 mph56%30.09 "HgN/A
1:20 AM66 °FMild.3 mph56%30.09 "HgN/A
12:50 AM68 °FMild.2 mph53%30.12 "HgN/A
12:20 AM68 °FMild.3 mph53%30.12 "HgN/A
11:50 PM
Fri, Aug 26
70 °FMild.6 mph50%30.12 "HgN/A
11:20 PM70 °FMild.5 mph50%30.12 "HgN/A
10:50 PM70 °FMild.5 mph50%30.12 "HgN/A
10:20 PM72 °FMild.3 mph47%30.12 "HgN/A
9:50 PM72 °FPassing clouds.6 mph47%30.09 "HgN/A
9:20 PM73 °FClear.6 mph47%30.09 "Hg10 mi
8:50 PM75 °FSunny.8 mph41%30.09 "Hg10 mi
8:20 PM75 °FSunny.5 mph39%30.07 "Hg10 mi
7:50 PM77 °FSunny.5 mph36%30.07 "Hg10 mi
7:20 PM79 °FSunny.6 mph34%30.07 "Hg10 mi
6:50 PM79 °FPassing clouds.5 mph26%30.07 "HgN/A
6:20 PM81 °FSunny.7 mph26%30.07 "Hg10 mi
5:50 PM81 °FPassing clouds.8 mph26%30.07 "HgN/A
5:20 PM81 °FPassing clouds.8 mph28%30.07 "HgN/A
4:50 PM81 °FPassing clouds.7 mph28%30.07 "HgN/A
4:20 PM81 °FPassing clouds.9 mph24%30.07 "HgN/A
3:50 PM81 °FPassing clouds.8 mph26%30.07 "HgN/A
3:20 PM79 °FSunny.9 mph37%30.07 "Hg10 mi
2:50 PM79 °FSunny.10 mph39%30.07 "Hg10 mi
2:20 PM79 °FSunny.3 mph42%30.07 "Hg10 mi
1:50 PM77 °FPassing clouds.5 mph44%30.07 "HgN/A
1:20 PM77 °FPassing clouds.6 mph47%30.07 "HgN/A
12:50 PM77 °FScattered clouds.6 mph51%30.07 "HgN/A
12:20 PM75 °FPassing clouds.6 mph54%30.07 "HgN/A
11:50 AM77 °FPassing clouds.8 mph51%30.07 "HgN/A
11:20 AM75 °FPassing clouds.7 mph54%30.07 "HgN/A
10:50 AM73 °FScattered clouds.8 mph57%30.07 "HgN/A
10:20 AM72 °FScattered clouds.9 mph65%30.07 "HgN/A
9:50 AM73 °FScattered clouds.7 mph57%30.07 "HgN/A
9:20 AM70 °FPassing clouds.5 mph64%30.04 "HgN/A
Weather by CustomWeather, © 2016

See weather overviewHow to use our weather pages